Stations météo

réclame
Mon MeteoGroup
Hereford/Credenhill, Grande-Bretagne (3522): Température de l'air & dewpoint: 13.01.2020 20:00:00 - 19.01.2020 20:00:00 (GMT)Hereford/Credenhill, Grande-Bretagne (3522): Température de l'air -20cm & Température de l'air -100cm: 13.01.2020 20:00:00 - 19.01.2020 20:00:00 (GMT)Hereford/Credenhill, Grande-Bretagne (3522): Vitesse du vent & gusts: 13.01.2020 20:00:00 - 19.01.2020 20:00:00 (GMT)Hereford/Credenhill, Grande-Bretagne (3522): Direction du vent: 13.01.2020 20:00:00 - 19.01.2020 20:00:00 (GMT)Hereford/Credenhill, Grande-Bretagne (3522): reduced air pressure: 13.01.2020 20:00:00 - 19.01.2020 20:00:00 (GMT)Hereford/Credenhill, Grande-Bretagne (3522): visibility: 13.01.2020 20:00:00 - 19.01.2020 20:00:00 (GMT)Hereford/Credenhill, Grande-Bretagne (3522): Quantités de précipitations: 13.01.2020 20:00:00 - 19.01.2020 20:00:00 (GMT)
Date & Time tt [°C] td [°C] tt -20cm [°C] tt -100cm [°C] ff [km/h] ff [knt] fx [km/h] fx [knt] dd ppp [hPa] vv [km] rr [mm]
19.01.2020 20:00:00 -1,6 -2,0 - - 4 2 - - W 1049,8 12 0,0
19.01.2020 19:00:00 -0,9 -1,6 - - 0 0 - - N 1049,3 13 0,0
19.01.2020 18:00:00 0,3 -0,4 - - 2 1 - - W 1049,0 16 0,0
19.01.2020 17:00:00 2,1 0,2 - - 2 1 - - W 1048,2 16 0,0
19.01.2020 16:00:00 4,5 0,9 - - 4 2 - - WSW 1047,8 30 0,0
19.01.2020 15:00:00 6,6 1,3 - - 4 2 - - W 1047,5 30 0,0
19.01.2020 14:00:00 6,6 2,3 - - 2 1 - - WNW 1047,0 30 0,0
19.01.2020 13:00:00 5,9 2,0 - - 5 3 - - W 1046,7 15 0,0
19.01.2020 12:00:00 4,7 1,3 - - 5 3 - - WSW 1047,4 14 0,2
19.01.2020 11:00:00 2,9 1,0 - - 4 2 - - S 1047,5 30 0,0
19.01.2020 10:00:00 0,5 0,3 - - 4 2 - - WSW 1046,6 17 0,0
19.01.2020 09:00:00 -2,4 -2,6 5,7 8,4 4 2 - - SW 1046,0 3,8 0,0
19.01.2020 08:00:00 -2,1 -2,4 - - 8 4 - - SSW 1045,0 14 0,0
19.01.2020 07:00:00 -1,6 -1,9 - - 5 3 - - W 1043,9 20 0,0
19.01.2020 06:00:00 -1,1 -1,5 - - 5 3 - - SW 1043,0 17 0,0
19.01.2020 05:00:00 -0,7 -1,7 - - 5 3 - - W 1042,2 16 0,0
19.01.2020 04:00:00 0,5 -0,7 - - 9 5 - - WNW 1041,4 28 0,0
19.01.2020 03:00:00 0,5 -0,8 - - 9 5 - - W 1041,1 24 0,0
19.01.2020 02:00:00 -0,2 -1,6 - - 8 4 - - W 1040,5 24 0,0
19.01.2020 01:00:00 1,0 -0,6 - - 9 5 - - NW 1039,5 27 0,0
19.01.2020 00:00:00 0,6 -0,6 - - 9 5 - - WNW 1038,5 21 0,0
18.01.2020 23:00:00 0,7 -0,7 - - 9 5 - - W 1037,6 27 0,0
18.01.2020 22:00:00 1,4 -0,7 - - 5 3 - - WNW 1036,8 25 0,0
18.01.2020 21:00:00 1,6 -0,4 - - 4 2 - - NW 1036,1 30 0,0
18.01.2020 20:00:00 1,4 -0,3 - - 5 3 - - WSW 1035,4 17 0,0
18.01.2020 19:00:00 2,0 0,7 - - 5 3 - - W 1034,6 20 0,0
18.01.2020 18:00:00 1,8 0,3 - - 2 1 - - W 1033,6 20 0,0
18.01.2020 17:00:00 3,4 1,1 - - 2 1 - - W 1032,4 20 0,0
18.01.2020 16:00:00 4,6 1,0 - - 5 3 - - W 1031,5 21 0,0
18.01.2020 15:00:00 6,6 1,4 - - 8 4 - - W 1030,9 30 0,0
18.01.2020 14:00:00 6,4 1,7 - - 9 5 - - W 1030,3 30 0,0
18.01.2020 13:00:00 5,9 1,7 - - 9 5 - - W 1029,9 17 0,0
18.01.2020 12:00:00 4,8 1,7 - - 9 5 - - W 1029,4 24 0,2
18.01.2020 11:00:00 4,0 1,9 - - 9 5 - - NW 1029,1 27 0,0
18.01.2020 10:00:00 2,2 2,0 - - 9 5 - - WNW 1028,2 15 0,0
18.01.2020 09:00:00 -1,7 -1,9 6,7 8,4 4 2 - - N 1027,6 9 0,0
18.01.2020 08:00:00 -0,3 -0,3 - - 8 4 - - NW 1027,0 14 0,0
18.01.2020 07:00:00 -1,2 -1,4 - - 4 2 - - W 1026,4 9 0,0
18.01.2020 06:00:00 -0,7 -1,0 - - 4 2 - - W 1025,9 12 0,0
18.01.2020 05:00:00 -0,8 -1,3 - - 2 1 - - SW 1024,8 11 0,0
18.01.2020 04:00:00 0,7 0,3 - - 2 1 - - W 1023,9 14 0,0
18.01.2020 03:00:00 -0,4 -0,7 - - 4 2 - - ENE 1023,6 18 0,0
18.01.2020 02:00:00 1,2 1,0 - - 8 4 - - WSW 1022,9 20 0,0
18.01.2020 01:00:00 -0,2 -0,8 - - 2 1 - - S 1022,3 1,0 0,0
18.01.2020 00:00:00 1,8 1,2 - - 5 3 - - W 1021,3 40 0,0
17.01.2020 23:00:00 2,0 1,7 - - 9 5 - - W 1020,4 35 0,0
17.01.2020 22:00:00 -0,2 -0,4 - - 5 3 - - WNW 1019,4 20 0,0
17.01.2020 21:00:00 -0,2 -0,7 - - 2 1 - - W 1018,5 9 0,0
17.01.2020 20:00:00 0,8 0,0 - - 4 2 - - SW 1017,7 11 0,0
17.01.2020 19:00:00 1,1 0,1 - - 2 1 - - NNW 1017,0 50 0,0
17.01.2020 18:00:00 3,0 1,1 - - 4 2 - - ESE 1016,2 28 0,0
17.01.2020 17:00:00 5,5 1,8 - - 13 7 - - WSW 1015,4 45 0,0
17.01.2020 16:00:00 5,0 1,5 - - 5 3 - - SW 1014,4 40 0,0
17.01.2020 15:00:00 7,1 2,6 - - 9 5 - - WSW 1013,9 45 0,0
17.01.2020 14:00:00 6,9 2,8 - - 13 7 - - WSW 1013,2 40 0,0
17.01.2020 13:00:00 6,8 3,5 - - 18 10 - - W 1012,9 40 0,0
17.01.2020 12:00:00 5,0 2,1 - - 13 7 - - WSW 1012,1 50 0,0
17.01.2020 11:00:00 4,8 2,1 - - 24 13 50 27 W 1011,0 45 0,0
17.01.2020 10:00:00 4,9 2,8 - - 22 12 - - W 1009,1 28 0,0
17.01.2020 09:00:00 5,8 5,6 7,0 8,4 4 2 - - SW 1006,7 30 0,2
17.01.2020 08:00:00 5,8 5,5 - - 5 3 - - WSW 1006,1 29 1,0
17.01.2020 07:00:00 5,5 5,0 - - 2 1 - - W 1005,6 18 0,4
17.01.2020 06:00:00 6,1 5,5 - - 4 2 - - SSE 1005,5 8 0,0
17.01.2020 05:00:00 7,5 6,9 - - 5 3 - - SE 1005,3 13 0,6
17.01.2020 04:00:00 7,6 6,9 - - 4 2 - - SE 1005,7 10 0,0
17.01.2020 03:00:00 7,7 7,2 - - 5 3 - - SSE 1006,1 6 0,0
17.01.2020 02:00:00 7,4 6,6 - - 4 2 - - S 1006,5 12 0,0
17.01.2020 01:00:00 7,6 6,0 - - 5 3 - - SSE 1006,8 13 0,0
17.01.2020 00:00:00 8,1 6,3 - - 4 2 - - S 1007,0 13 0,0
16.01.2020 23:00:00 7,4 5,6 - - 4 2 - - S 1007,2 17 0,0
16.01.2020 22:00:00 7,9 5,6 - - 5 3 - - SSW 1006,7 14 0,0
16.01.2020 21:00:00 9,2 6,6 - - 5 3 - - SSW 1006,7 22 0,0
16.01.2020 20:00:00 9,6 6,7 - - 11 6 - - SSW 1005,6 27 0,0
16.01.2020 19:00:00 9,9 8,9 - - 4 2 - - SSW 1004,9 12 0,2
16.01.2020 18:00:00 10,8 9,7 - - 9 5 - - S 1004,2 9 0,4
16.01.2020 17:00:00 11,2 10,0 - - 11 6 48 26 S 1002,8 21 0,4
16.01.2020 16:00:00 10,6 9,9 - - 21 11 48 26 S 1002,4 4,1 1,6
16.01.2020 15:00:00 10,6 9,3 - - 15 8 57 31 S 1003,6 3,9 0,2
16.01.2020 14:00:00 10,4 9,0 - - 18 10 59 32 S 1004,0 16 0,8
16.01.2020 13:00:00 9,7 8,6 - - 21 11 46 25 SSE 1005,7 10 2,6
16.01.2020 12:00:00 9,2 7,7 - - 15 8 - - SE 1007,5 11 0,4
16.01.2020 11:00:00 8,7 6,1 - - 13 7 - - ESE 1009,4 22 0,0
16.01.2020 10:00:00 8,4 5,6 - - 15 8 - - SE 1010,8 18 0,0
16.01.2020 09:00:00 8,3 5,1 6,9 8,4 11 6 - - SSE 1012,2 20 0,0
16.01.2020 08:00:00 8,3 5,4 - - 16 9 - - SSE 1012,3 19 0,0
16.01.2020 07:00:00 7,9 5,6 - - 9 5 - - SE 1013,1 14 0,0
16.01.2020 06:00:00 7,8 5,7 - - 11 6 - - SSE 1013,7 14 0,0
16.01.2020 05:00:00 7,3 5,6 - - 9 5 - - SSE 1014,6 14 0,0
16.01.2020 04:00:00 6,4 5,3 - - 8 4 - - SSE 1015,5 14 0,0
16.01.2020 03:00:00 5,1 3,6 - - 4 2 - - E 1016,0 11 0,0
16.01.2020 02:00:00 6,1 4,2 - - 5 3 - - S 1016,2 13 0,0
16.01.2020 01:00:00 5,9 4,0 - - 8 4 - - S 1015,9 15 0,0
16.01.2020 00:00:00 5,2 4,4 - - 5 3 - - S 1015,4 15 0,0
15.01.2020 23:00:00 5,0 3,3 - - 5 3 - - S 1014,9 24 0,0
15.01.2020 22:00:00 5,2 3,5 - - 4 2 - - S 1014,5 20 0,0
15.01.2020 21:00:00 6,6 4,5 - - 9 5 - - SSW 1014,0 16 0,0
15.01.2020 20:00:00 5,4 3,5 - - 8 4 - - SSW 1013,5 29 0,0
15.01.2020 19:00:00 6,0 3,3 - - 5 3 - - SSW 1012,6 30 0,0
15.01.2020 18:00:00 7,0 3,5 - - 9 5 - - SSW 1011,6 16 0,2
15.01.2020 17:00:00 6,0 2,7 - - 8 4 - - SSW 1010,4 22 0,0
15.01.2020 16:00:00 7,4 2,2 - - 9 5 - - SW 1009,2 21 0,0
15.01.2020 15:00:00 8,3 2,4 - - 18 10 - - WSW 1007,8 30 0,0
15.01.2020 14:00:00 8,3 3,5 - - 9 5 - - WSW 1006,7 35 0,0
15.01.2020 13:00:00 7,8 3,2 - - 21 11 46 25 WSW 1006,1 27 0,2
15.01.2020 12:00:00 6,9 3,3 - - 16 9 - - W 1004,9 29 0,0
15.01.2020 11:00:00 8,5 2,7 - - 16 9 - - WSW 1004,1 25 0,0
15.01.2020 10:00:00 5,2 3,5 - - 2 1 - - SSW 1002,9 15 0,0
15.01.2020 09:00:00 5,2 3,4 7,2 8,4 2 1 - - SW 1001,8 21 0,0
15.01.2020 08:00:00 5,7 3,6 - - 2 1 - - SW 1000,8 19 0,0
15.01.2020 07:00:00 6,4 2,6 - - 8 4 - - SW 999,9 27 0,0
15.01.2020 06:00:00 5,5 3,0 - - 8 4 - - SW 999,3 25 0,0
15.01.2020 05:00:00 5,3 3,2 - - 5 3 - - SW 998,4 29 0,0
15.01.2020 04:00:00 5,6 3,5 - - 5 3 - - SW 997,4 45 0,0
15.01.2020 03:00:00 6,7 3,4 - - 8 4 - - SW 997,6 50 0,0
15.01.2020 02:00:00 7,2 2,7 - - 15 8 - - WSW 996,5 40 0,0
15.01.2020 01:00:00 6,8 3,6 - - 13 7 - - WSW 995,9 29 0,0
15.01.2020 00:00:00 7,3 5,1 - - 16 9 - - W 995,2 18 0,0
14.01.2020 23:00:00 7,7 4,9 - - 11 6 - - W 994,0 35 0,0
14.01.2020 22:00:00 7,9 4,8 - - 15 8 - - W 993,4 45 0,2
14.01.2020 21:00:00 8,2 6,0 - - 18 10 - - W 992,7 15 0,0
14.01.2020 20:00:00 9,6 6,8 - - 22 12 - - W 991,4 30 0,0
14.01.2020 19:00:00 10,8 7,7 - - 15 8 - - SW 989,5 45 0,8
14.01.2020 18:00:00 11,5 9,7 - - 15 8 48 26 SSW 988,1 7 1,0
14.01.2020 17:00:00 12,1 9,8 - - 18 10 48 26 SSW 986,7 15 0,6
14.01.2020 16:00:00 12,5 10,7 - - 18 10 59 32 SW 985,8 5 0,6
14.01.2020 15:00:00 13,3 11,5 - - 22 12 55 30 SSW 984,8 10 0,6
14.01.2020 14:00:00 11,1 10,6 - - 11 6 46 25 S 985,0 3,8 1,0
14.01.2020 13:00:00 10,2 9,7 - - 13 7 54 29 S 985,6 5 1,0
14.01.2020 12:00:00 8,2 7,6 - - 15 8 - - SSE 988,3 3,9 2,0
14.01.2020 11:00:00 7,7 6,7 - - 8 4 - - S 991,3 5 0,4
14.01.2020 10:00:00 7,4 5,5 - - 9 5 - - S 992,6 10 0,0
14.01.2020 09:00:00 6,8 4,7 7,0 8,4 16 9 - - S 993,9 12 0,0
14.01.2020 08:00:00 6,2 4,6 - - 5 3 - - S 994,4 10 0,2
14.01.2020 07:00:00 5,6 4,6 - - 8 4 - - S 994,5 8 0,0
14.01.2020 06:00:00 5,1 4,5 - - 4 2 - - S 994,5 10 0,4
14.01.2020 05:00:00 5,0 4,1 - - 4 2 - - S 995,0 21 0,2
14.01.2020 04:00:00 5,1 4,0 - - 4 2 - - SW 994,9 30 2,0
14.01.2020 03:00:00 6,2 3,6 - - 5 3 - - S 994,3 14 0,0
14.01.2020 02:00:00 6,3 3,1 - - 9 5 - - WSW 994,2 20 0,0
14.01.2020 01:00:00 7,3 3,6 - - 11 6 - - WSW 994,1 12 0,0
14.01.2020 00:00:00 6,0 4,3 - - 9 5 55 30 SW 994,0 13 0,8
13.01.2020 23:00:00 7,3 3,7 - - 13 7 - - SW 993,4 10 0,2
13.01.2020 22:00:00 5,7 4,4 - - 4 2 - - SSW 993,2 9 0,4
13.01.2020 21:00:00 6,8 3,7 - - 11 6 - - SW 992,8 12 0,0
13.01.2020 20:00:00 7,2 4,9 - - 8 4 - - SW 993,0 10 0,0

tt = Température de l'air
td = dewpoint
tt -20cm = Température de l'air -20cm
tt -100cm = Température de l'air -100cm
ff = Vitesse du vent
fx = gusts
dd = Direction du vent
ppp = reduced air pressure
vv = visibility
rr = Quantités de précipitations

stations d'obs. à proximité